{"data":{"norad_id":59733,"epoch":"2026-05-24T23:10:47.955648Z","epoch_age_seconds":88483,"freshness":"FRESH","line1":"1 59733U 24090D   26144.96583282 -.00003070  00000+0 -10216-3 0  9996","line2":"2 59733  43.0035 112.8958 0001766 286.6970  73.3688 15.27551993115106","mean_motion":15.27551993,"eccentricity":0.0001766,"inclination_deg":43.0035,"raan_deg":112.8958,"arg_perigee_deg":286.697,"mean_anomaly_deg":73.3688,"bstar":-0.00010216,"rev_number":11510,"period_min":94.268477053403,"perigee_km":481.92126007944,"apogee_km":484.34466062944,"semimajor_km":6861.2699603544,"source":"CELESTRAK","updated_at":"2026-05-25T13:38:19.050686Z"}}